STARLINK-35264, 65900

Orbit data source: Space-Track

STARLINK-35264, 65900 is a payload satellite owned by SpaceX/Seattle (US) in LEO that was launched on Tue, 07 Oct 2025 UTC via an FALCON 9 launch vehicle from the Air Force Eastern Test Range (AFETR). Payload-class satellites include a variety of spacecraft equipped with specific instruments for various scientific and technological missions. These include communications satellites like Starlink; space stations such as the ISS; scientific satellites like the Hubble; Earth observation satellites from companies like Planet Labs, Umbra, and HawkEye 360; GPS; miniature CubeSats for education and research; and military/defense satellites.

Loading next visibility...
Identifier
65900, 2025-224U
Orbit
LEO
Country
Flag of USUS
Related business
Manufacturer
SpaceX/Seattle
Mission
Operational Commercial Communications
Bus & Motor
STARLINK V2MO, Unknown motor
Mass
575 kg wet, ~530 kg dry
Launch date (UTC)
2025-10-07 (8 months ago)
Launch vehicle
FALCON 9
Launch site
Air Force Eastern Test Range (AFETR)
Object type
Payload
Rocket body
Debris
Shape & HBR
Box + 2 Pan, 17.7 m
Radar Cross Section
36.964 m², Large (>1 m²)

Expand to show TLE details & history
Last TLE update: 11 hours ago

TLE from 11 hours ago
0 STARLINK-35264
1 65900U 25224U   26171.43876991  .00020030  00000-0  60222-3 0  9999
2 65900  53.1584 252.0998 0000906  77.8750 282.2354 15.34407299 40624
Epoch: 2026-06-20T10:31Z
TLE epoch observation values (Epoch: 2026-06-20T10:31:49.720Z)
Latitude
-0.00001°
Longitude
-174.51076°
Altitude
463.451 km
Speed
7.636 km/s
True Right ascension
16h 48m 23s
True Declination
0° 00' 00"
Sunlit
Object was in full shadow at epoch
Visualization orbit readout
Latitude
Unknown
Longitude
Unknown
Altitude
Unknown
Speed
Unknown
Apparent Right ascension
Unknown
Apparent Declination
Unknown
Sunlit
N/A
Visualization observer readout
Local Sidereal Time
08:41:59
Azimuth
Unknown
Elevation
Unknown
Doppler factor
Unknown
Orbital elements
Apogee altitude
463.558 km
Perigee altitude
462.319 km
Semi-major axis
6,841.076 km
Eccentricity
0.00009
Inclination
53.1584°
RAAN
252.0998°
Arg. of periapsis
77.875°
True anomaly
282.22525°
Mean anomaly
282.2354°
Eccentric anomaly
282.23033°
Mean motion
3.83581 °/min
Orbital period
93.85 mins
BSTAR
0.00060222
Loading maneuver chart data...
Computing Atmospheric mass density...
Loading historical data...
Loading historical data...
Loading historical data...
Loading historical data...
Loading historical data...
Loading historical data...
Loading historical data...

Documentation

Showing up to 5 results
|